Location: Austin
(30.3000°N, 97.7500°W)
Time: 21:20:21
(UTC-06:00)

SJ-11-01 - Pass Details

Date: 03 December 2025
Orbit: 675 x 689 km, 98.0° (Epoch: 07 December)

Event Time Altitude Azimuth Distance (km) Brightness Sun altitude
Rises 05:14:37 0° 10° (N) 3,060 7.6 -24.7°
Reaches altitude 10° 05:16:52 10° 9° (N) 2,140 6.8 -24.3°
Maximum altitude 05:21:33 79° 284° (WNW) 701 4.1 -23.3°
Drops below altitude 10° 05:26:11 10° 197° (SSW) 2,121 6.8 -22.3°
Sets 05:28:25 0° 196° (SSW) 3,031 7.6 -21.8°
